RYR6DW LIRN-EBCI

Flight info

Callsign RYR6DW
Flight time N/A
Altitude 38000
Route ALAXI DCT INSOX DCT UNIMI L12 MOGTI DCT KPT L608 MISGI Z104 ODVUX/N0391F280 Z104 GESLO N852 LNO
Aircraft B38M/M-SDE1FGHILORVWXY/HB1

Departure

Time 2026-05-04 10:49
Airport Naples International Airport (LIRN)

Arrival

Time N/A
Airport Brussels South Charleroi Airport (EBCI)
Time Latitude Longitude Altitude Speed Heading
2026-05-04 10:34 40.88192 14.28719 285 ft 0 kts 328°
2026-05-04 10:42 40.88172 14.28733 282 ft 4 kts 337°
2026-05-04 10:43 40.88146 14.28742 284 ft 4 kts 358°
2026-05-04 10:44 40.88116 14.28727 288 ft 0 kts 53°
2026-05-04 10:45 40.88122 14.28739 284 ft 4 kts 53°
2026-05-04 10:46 40.88151 14.28789 281 ft 12 kts 53°
2026-05-04 10:46 40.88233 14.28931 278 ft 27 kts 52°
2026-05-04 10:46 40.88371 14.29171 272 ft 36 kts 52°
2026-05-04 10:46 40.88532 14.29449 264 ft 40 kts 52°
2026-05-04 10:47 40.88699 14.29739 256 ft 36 kts 52°
2026-05-04 10:47 40.88852 14.30006 247 ft 38 kts 53°
2026-05-04 10:47 40.88983 14.30231 239 ft 16 kts 51°
2026-05-04 10:47 40.89079 14.30228 237 ft 16 kts 328°
2026-05-04 10:49 40.85095 14.24394 3762 ft 208 kts 192°
2026-05-04 10:49 40.83640 14.24462 4699 ft 214 kts 165°
2026-05-04 10:50 40.82220 14.25009 5879 ft 208 kts 162°
2026-05-04 10:51 40.72203 14.29268 10743 ft 238 kts 119°
2026-05-04 10:52 40.71686 14.31317 11254 ft 240 kts 88°
2026-05-04 10:52 40.71879 14.33514 11851 ft 245 kts 76°
2026-05-04 10:52 40.72180 14.35737 12644 ft 246 kts 76°
2026-05-04 10:54 40.81560 14.41107 15982 ft 319 kts 351°
2026-05-04 10:54 40.83804 14.40565 16388 ft 333 kts 351°
2026-05-04 10:56 40.98922 14.31596 20887 ft 362 kts 322°
2026-05-04 10:56 41.00864 14.29452 21483 ft 365 kts 322°
2026-05-04 10:56 41.02795 14.27302 22061 ft 368 kts 321°
2026-05-04 10:57 41.04757 14.25111 22652 ft 371 kts 321°
2026-05-04 10:57 41.06736 14.22895 23238 ft 374 kts 321°
2026-05-04 10:57 41.08727 14.20663 23804 ft 376 kts 321°
2026-05-04 10:57 41.10737 14.18408 24277 ft 379 kts 321°
2026-05-04 10:58 41.12754 14.16144 24797 ft 380 kts 321°
2026-05-04 10:58 41.14773 14.13875 25298 ft 381 kts 321°
2026-05-04 10:58 41.16802 14.11593 25781 ft 383 kts 321°
2026-05-04 10:58 41.18819 14.09323 26247 ft 385 kts 321°
2026-05-04 10:59 41.20868 14.07015 26697 ft 386 kts 321°
2026-05-04 10:59 41.22920 14.04701 27175 ft 387 kts 321°
2026-05-04 10:59 41.24977 14.02378 27607 ft 389 kts 320°
2026-05-04 10:59 41.27046 14.00043 28045 ft 391 kts 320°
2026-05-04 11:00 41.29123 13.97690 28468 ft 392 kts 319°
2026-05-04 11:01 41.42416 13.78895 31071 ft 405 kts 314°
2026-05-04 11:02 41.44358 13.76157 31397 ft 407 kts 314°
2026-05-04 11:02 41.46308 13.73404 31698 ft 409 kts 314°
2026-05-04 11:05 41.73366 13.34927 36463 ft 403 kts 313°
2026-05-04 11:06 41.75273 13.32176 36710 ft 403 kts 313°
2026-05-04 11:06 41.77158 13.29457 36967 ft 402 kts 313°
2026-05-04 11:06 41.79064 13.26707 37219 ft 402 kts 313°
2026-05-04 11:06 41.81026 13.24040 37433 ft 402 kts 321°
2026-05-04 11:08 41.99600 13.15375 38181 ft 406 kts 341°
2026-05-04 11:10 42.18571 13.07876 38188 ft 407 kts 341°
2026-05-04 11:12 42.40354 12.99210 38185 ft 409 kts 341°
2026-05-04 11:12 42.45825 12.97023 38186 ft 409 kts 341°